Preview of NWS' New Version of Forecast
This preview is not operational and should not be used for support decisions.

Regional Weather Roundup (RWR)

Issued by Gray - Portland, ME (GYX)

                            
000
ASUS41 KGYX 250610
RWRGYX
WEATHER ROUNDUP FOR MAINE AND NEW HAMPSHIRE
NATIONAL WEATHER SERVICE GRAY ME
200 AM EDT TUE JUN 25 2019

MEZ002-005-006-010-012-015-018-020-021-024-026-027-029-250700-
MAINE
  
CITY           SKY/WX    TMP DP  RH WIND       PRES   REMARKS
PORTLAND       FAIR      54  51  90 N3        29.92S                  
6HR MIN TEMP:  54; 6HR MAX TEMP:  64;                                

SANFORD        FAIR      47  47 100 CALM      29.91S                  
BAR HARBOR     FAIR      47  45  93 N3        29.95R                  
WISCASSET      FAIR      48  46  93 CALM      29.95R                  
6HR MIN TEMP:  48; 6HR MAX TEMP:  61;                                

ROCKLAND       FAIR      47  45  93 CALM      29.93S                  
FRYEBURG       FAIR      49  47  93 CALM      29.93R FOG              
6HR MIN TEMP:  49; 6HR MAX TEMP:  73;                                

LEWISTONAUBURN FAIR      51  49  92 CALM      29.94R                  
AUGUSTA        FAIR      53  49  86 S3        29.94R                  
6HR MIN TEMP:  53; 6HR MAX TEMP:  66;                                

WATERVILLE     FAIR      51  49  92 CALM      29.91R                  
BANGOR         FAIR      50  47  89 CALM      29.94R                  
6HR MIN TEMP:  49; 6HR MAX TEMP:  68;                                

GREENVILLE       N/A     53  37  54 E5        29.93R                  
6HR MIN TEMP:  52; 6HR MAX TEMP:  65;                                

MILLINOCKET    FAIR      48  44  86 CALM      29.94R                  
6HR MIN TEMP:  47; 6HR MAX TEMP:  71;                                

HOULTON        FAIR      41  39  93 CALM      29.92R                  
6HR MIN TEMP:  41; 6HR MAX TEMP:  63;                                

PRESQUE ISLE   FAIR      43  42  97 S3        29.94R                  
6HR MIN TEMP:  43; 6HR MAX TEMP:  66;                                

FRENCHVILLE    FAIR      53  36  52 CALM      29.93R                  
6HR MIN TEMP:  53; 6HR MAX TEMP:  66;                                

CARIBOU        FAIR      47  41  80 CALM      29.92R                  
6HR MIN TEMP:  47; 6HR MAX TEMP:  66;                                

$$

NHZ002-005-008-009-011-012-014-250700-
NEW HAMPSHIRE
  
CITY           SKY/WX    TMP DP  RH WIND       PRES   REMARKS
PORTSMOUTH     MOCLDY    58  54  89 NE3       29.87F                  
ROCHESTER      FAIR      55  49  80 CALM      29.89F                  
6HR MIN TEMP:  54; 6HR MAX TEMP:  67;                                

NASHUA         FAIR      59  56  89 NW5       29.89R                  
MANCHESTER     FAIR      61  51  70 N3        29.87R                  
6HR MIN TEMP:  61; 6HR MAX TEMP:  75;                                

CONCORD        FAIR      58  48  69 CALM      29.89S                  
6HR MIN TEMP:  56; 6HR MAX TEMP:  72;                                

LACONIA        FAIR      56  53  90 CALM      29.90F                  
PLYMOUTH       FAIR      52  50  94 CALM      29.90S                  
BERLIN         FAIR      44  41  89 CALM      29.93S                  
6HR MIN TEMP:  44; 6HR MAX TEMP:  71;                                

WHITEFIELD     FAIR      45  43  93 CALM      29.90S                  
6HR MIN TEMP:  45; 6HR MAX TEMP:  73;                                

JAFFREY        FAIR      58  55  90 CALM      29.90S                  
6HR MIN TEMP:  58; 6HR MAX TEMP:  72;                                

KEENE          FAIR      58  57  97 CALM      29.87S                  
LEBANON        FAIR      55  50  83 CALM      29.87S                  
6HR MIN TEMP:  55; 6HR MAX TEMP:  69;                                

MT WASHINGTON  PTCLDY    46  36  66 SW7         N/A                   
                   6HR MAX TEMP:  50;                                

$$

VTZ005-007-008-250700-
VERMONT
  
CITY           SKY/WX    TMP DP  RH WIND       PRES   REMARKS
ST JOHNSBURY     N/A     53  51  93 MISG      29.87F                  
MONTPELIER     FAIR      52  48  86 CALM      29.91F                  
BURLINGTON     FAIR      61  52  72 CALM      29.82S                  
$$

MAZ007-012-024-CTZ003-RIZ002-NYZ038-NYZ072-250700-
SOUTHERN NEW ENGLAND AND NY
  
CITY           SKY/WX    TMP DP  RH WIND       PRES   REMARKS
WORCESTER      FAIR      65  56  72 W7        29.89S                  
NANTUCKET      FAIR      59  56  89 S8        29.91S                  
PROVIDENCE     FAIR      65  58  78 CALM      29.87S                  
HARTFORD       MOCLDY    69  59  70 SE3       29.84F                  
ALBANY         CLOUDY    68  57  68 S5        29.81S                  
NEW YORK CITY  CLOUDY    74  66  76 SE7       29.82S                  
$$

ANZ081-ANZ082-ANZ150-NHZ014-MEZ023>029-250700-
COASTAL MARINE OBSERVATIONS
  
STATION/POSITION TIME  TEMP    WIND        PRES    WAVE
                       AIR SEA DIR/SP/G            HT/PER
                 (UTC) (F)     (DEG/KT/KT) (MB)    (FT/S)
ISLE OF SHOALS   0500   61     120/  5/  5 1011.7R
JEFFREYS LEDGE   0538      59                N/A     2/ 3
CASHES LEDGE BUO 0550   56 54  140/  6/  6 1013.4S   1/10
GEORGES BANK BUO 0550   55 54  110/  4/  4 1014.9R   3/ 7
$$

.............KEY..............
   WCI - WIND CHILL
   TC  - TEMPERATURE IN CELSIUS
   VSB - VISIBILITY IN MILES
   HX  - HEAT INDEX
   FAIR- INDICATES FEW OR NO CLOUDS BELOW 12,000 FT, WITH NO 
         SIGNIFICANT WEATHER AND/OR OBSTRUCTIONS TO VISIBILITY.